Find Starlink 32480

NORAD ID: 62039 Int'l Des: 2024-216 Owner: SPXS Country: US Constellation: starlink operational
LEOCIRCULAR

Live Position

Loading 3D Globe...

About Starlink 32480

Description loading...

Upcoming Passes

Passes for default location (London). Set your location on the main map for personalized predictions.

Altitude History

Loading altitude history...

Two-Line Element Set

1 62039U 24216H 26130.08969755 .00010797 00000-0 40130-3 0 9991
2 62039 43.0026 269.7682 0000615 266.8982 93.1799 15.27579002 82107
Epoch: May 10, 2026 • Age: 7 hours

Current Status

Altitude 482.8 km
Velocity 7.63 km/s
Sub-Earth Point 22.30°N, 58.01°E
Launch Date Nov 21, 2024
Age 1.4 years
Type internet

Technical Details

Classification Payload
Mass 730.00 kg
Dry Mass 700.00 kg
Total Mass 730.00 kg
Length 0.30 m
Diameter 4.10 m
Span 29.00 m
Shape Box + pan
Manufacturer SPXS
Bus Type Starlink V2M
Phase Status In Orbit
Owner/State SPXS/US

Most Searched